LASARSAT

Last updated on Wed Aug 19 2026 00:03:15 GMT+0000 (Coordinated Universal Time)

1 62391U 24247Q 26230.56024700 .00034754 00000+0 60668-3 0 9998 2 62391 44.9725 270.7077 0008653 8.4088 351.6947 15.50103041 92987
UTC large
Height (km)
Speed (km/s)
/
Latitude / Longitude
Inclination (degrees)
Orbital Period (minutes)
Azimuth
Elevation
Range (km)
Doppler Factor

Next 0 passes for location: London (51.5072 / 0.1276)

No passes found over London.
LASARSAT